Location: Mountain Lakes
(44.1215°N, 71.9554°W)
Time: 03:02:04
(UTC+00:00)

Resurs 1-3 - Pass Details

Date: 08 September 2024
Orbit: 619 x 621 km, 97.7° (Epoch: 11 October)

Event Time Altitude Azimuth Distance (km) Brightness Sun altitude
Rises 23:25:26 0° 151° (SSE) 2,894 6.6 -3.5°
Reaches altitude 10° 23:27:40 10° 145° (SE) 1,991 5.7 -3.9°
Maximum altitude 23:31:49 47° 72° (ENE) 830 3.9 -4.7°
Drops below altitude 10° 23:35:54 11° 359° (N) 1,963 6.3 -5.4°
Sets 23:38:15 0° 353° (N) 2,914 7.3 -5.8°
